Flag for U.S.A. Weather past 2 weeks in Virginia Beach, Virginia, U.S.A.

Now
73 °F

Passing clouds.


Feels Like: 75 °F
Forecast: 68 / 84 °F
Wind: 6 mph from Southwest

Location: Virginia Beach - Oceana

Current Time: May 29, 2015 at 2:20:04 AM

Latest Report: May 29, 2015 at 1:56 AM


Visibility: 10 mi

Pressure: 30.22 "Hg

Humidity: 71%

Dew point: 63 °F

Location of Virginia BeachLocation

Historic Weather in Virginia Beach — Graph

°F

Virginia Beach temperature yesterday

Maximum temperature yesterday: 86 °F (at 2:56 PM)
Minimum temperature yesterday: 71 °F (at 3:56 AM)
Average temperature yesterday: 78 °F

Past Weeks' High & Low Weather Summary

 TemperatureHumidityPressure
High90 °F (May 18, 1:56 PM)94% (May 19, 4:56 AM)30.46 "Hg (May 19, 4:56 AM)
Low50 °F (May 15, 3:56 AM)27% (May 22, 2:56 PM)29.77 "Hg (May 21, 4:56 PM)
Average71 °F65%30.19 "Hg
* Reported May 14 12:56 AM — May 29 12:56 AM, Virginia Beach, Weather by CustomWeather, © 2015

Note: Actual official high and low records may vary slightly from our data, if they occured in-between our weather recording intervals... More about our weather records

Advertising

Virginia Beach weather history for previous 24 hours

 ConditionsComfort  
Time TempWeatherWind HumidityBarometerVisibility
12:56 AM
Fri, May 29
73 °FPassing clouds.6 mph71%30.22 "Hg10 mi
11:56 PM
Thu, May 28
75 °FClear.9 mph69%30.23 "Hg10 mi
10:56 PM76 °FPassing clouds.7 mph72%30.22 "Hg10 mi
9:56 PM76 °FClear.7 mph72%30.21 "Hg10 mi
8:56 PM77 °FScattered clouds.8 mph66%30.20 "Hg10 mi
7:56 PM78 °FScattered clouds.10 mph62%30.18 "Hg10 mi
6:56 PM80 °FBroken clouds.9 mph60%30.18 "Hg10 mi
5:56 PM83 °FBroken clouds.15 mph59%30.16 "Hg10 mi
4:56 PM84 °FPassing clouds.13 mph59%30.18 "Hg10 mi
3:56 PM84 °FBroken clouds.13 mph59%30.18 "Hg10 mi
2:56 PM86 °FBroken clouds.9 mph55%30.19 "Hg10 mi
1:56 PM84 °FPartly sunny.No wind61%30.20 "Hg10 mi
12:56 PM85 °FBroken clouds.6 mph59%30.21 "Hg10 mi
11:56 AM83 °FPartly sunny.9 mph61%30.22 "Hg10 mi
10:56 AM83 °FPartly sunny.10 mph63%30.22 "Hg10 mi
9:56 AM81 °FPartly sunny.9 mph65%30.23 "Hg10 mi
8:56 AM78 °FPartly sunny.13 mph69%30.24 "Hg10 mi
7:56 AM75 °FBroken clouds.12 mph74%30.24 "Hg10 mi
6:56 AM73 °FBroken clouds.8 mph79%30.22 "Hg10 mi
5:56 AM71 °FPartly cloudy.7 mph81%30.20 "Hg10 mi
4:56 AM71 °FPassing clouds.8 mph81%30.19 "Hg10 mi
3:56 AM71 °FPassing clouds.6 mph81%30.20 "Hg10 mi
2:56 AM72 °FPassing clouds.9 mph78%30.20 "Hg10 mi
Weather by CustomWeather, © 2015

See weather overviewHow to use our weather pages